H1 CPF 2 NER 2024 10 10 9 284 01 glonass141 H2 1908801 9141 44850 2024 10 10 0 0 0 2024 10 13 23 45 0 900 1 1 0 0 0 1 H9 10 0 60593 0.00000 0 -12050042.325 -14396276.560 17279938.636 10 0 60593 900.00000 0 -12743819.253 -16263406.139 14966326.352 10 0 60593 1800.00000 0 -13467821.059 -17791175.052 12362162.665 10 0 60593 2700.00000 0 -14164825.036 -18956097.823 9517901.275 10 0 60593 3600.00000 0 -14775781.148 -19747804.671 6488704.851 10 0 60593 4500.00000 0 -15242450.776 -20169278.759 3333379.656 10 0 60593 5400.00000 0 -15510030.403 -20236545.333 113234.781 10 0 60593 6300.00000 0 -15529648.636 -19977825.354 -3109111.873 10 0 60593 7200.00000 0 -15260629.704 -19432188.971 -6270957.184 10 0 60593 8100.00000 0 -14672426.110 -18647765.560 -9310741.417 10 0 60593 9000.00000 0 -13746136.817 -17679586.139 -12169256.898 10 0 60593 9900.00000 0 -12475544.846 -16587149.819 -14790811.985 10 0 60593 10800.00000 0 -10867628.557 -15431817.902 -17124326.533 10 0 60593 11700.00000 0 -8942523.308 -14274146.610 -19124336.433 10 0 60593 12600.00000 0 -6732933.636 -13171272.092 -20751886.795 10 0 60593 13500.00000 0 -4283019.548 -12174458.934 -21975295.807 10 0 60593 14400.00000 0 -1646802.813 -11326916.255 -22770774.117 10 0 60593 15300.00000 0 1113840.484 -10661973.884 -23122887.645 10 0 60593 16200.00000 0 3931517.430 -10201695.467 -23024855.032 10 0 60593 17100.00000 0 6735888.365 -9955986.646 -22478674.342 10 0 60593 18000.00000 0 9456362.380 -9922235.219 -21495077.016 10 0 60593 18900.00000 0 12024805.968 -10085497.535 -20093310.535 10 0 60593 19800.00000 0 14378152.265 -10419222.174 -18300754.589 10 0 60593 20700.00000 0 16460802.534 -10886479.217 -16152378.757 10 0 60593 21600.00000 0 18226720.550 -11441642.074 -13690052.821 10 0 60593 22500.00000 0 19641133.548 -12032449.771 -10961723.640 10 0 60593 23400.00000 0 20681769.992 -12602361.661 -8020475.136 10 0 60593 24300.00000 0 21339584.035 -13093104.310 -4923490.194 10 0 60593 25200.00000 0 21618938.127 -13447302.397 -1730935.117 10 0 60593 26100.00000 0 21537237.968 -13611082.136 1495211.216 10 0 60593 27000.00000 0 21124036.967 -13536537.122 4692360.414 10 0 60593 27900.00000 0 20419649.485 -13183952.576 7798526.354 10 0 60593 28800.00000 0 19473332.496 -12523694.304 10753522.135 10 0 60593 29700.00000 0 18341113.086 -11537683.013 13500119.278 10 0 60593 30600.00000 0 17083353.589 -10220392.066 15985147.252 10 0 60593 31500.00000 0 15762156.726 -8579326.766 18160512.749 10 0 60593 32400.00000 0 14438719.260 -6634964.791 19984119.993 10 0 60593 33300.00000 0 13170744.414 -4420159.637 21420675.382 10 0 60593 34200.00000 0 12010020.471 -1979031.049 22442361.983 10 0 60593 35100.00000 0 11000265.830 634612.675 23029371.905 10 0 60593 36000.00000 0 10175329.567 3359256.519 23170287.049 10 0 60593 36900.00000 0 9557821.838 6127984.212 22862301.353 10 0 60593 37800.00000 0 9158230.773 8871013.596 22111280.343 10 0 60593 38700.00000 0 8974562.480 11518358.680 20931656.468 10 0 60593 39600.00000 0 8992519.350 14002509.612 19346161.518 10 0 60593 40500.00000 0 9186209.603 16261020.827 17385400.185 10 0 60593 41400.00000 0 9519359.055 18238900.884 15087271.654 10 0 60593 42300.00000 0 9946975.027 19890705.136 12496249.008 10 0 60593 43200.00000 0 10417393.247 21182244.207 9662528.981 10 0 60593 44100.00000 0 10874622.186 22091836.720 6641067.334 10 0 60593 45000.00000 0 11260886.245 22611053.319 3490517.697 10 0 60593 45900.00000 0 11519260.289 22744920.142 272094.000 10 0 60593 46800.00000 0 11596283.594 22511572.480 -2951621.468 10 0 60593 47700.00000 0 11444441.526 21941372.615 -6117900.753 10 0 60593 48600.00000 0 11024408.512 21075528.617 -9165099.174 10 0 60593 49500.00000 0 10306955.562 19964272.253 -12033865.544 10 0 60593 50400.00000 0 9274439.730 18664673.124 -14668308.917 10 0 60593 51300.00000 0 7921810.561 17238181.765 -17017097.974 10 0 60593 52200.00000 0 6257089.146 15748006.094 -19034470.549 10 0 60593 53100.00000 0 4301297.924 14256432.692 -20681132.756 10 0 60593 54000.00000 0 2087842.798 12822206.615 -21925029.605 10 0 60593 54900.00000 0 -338627.563 11498080.754 -22741971.791 10 0 60593 55800.00000 0 -2923838.117 10328638.291 -23116106.428 10 0 60593 56700.00000 0 -5605912.327 9348479.912 -23040222.747 10 0 60593 57600.00000 0 -8317721.151 8580851.643 -22515887.212 10 0 60593 58500.00000 0 -10989458.116 8036770.337 -21553405.917 10 0 60593 59400.00000 0 -13551333.124 7714682.471 -20171615.551 10 0 60593 60300.00000 0 -15936272.783 7600669.326 -18397507.553 10 0 60593 61200.00000 0 -18082514.876 7669188.387 -16265693.370 10 0 60593 62100.00000 0 -19935989.209 7884318.200 -13817721.732 10 0 60593 63000.00000 0 -21452386.181 8201452.660 -11101261.751 10 0 60593 63900.00000 0 -22598827.609 8569371.850 -8169168.281 10 0 60593 64800.00000 0 -23355071.199 8932600.823 -5078448.207 10 0 60593 65700.00000 0 -23714199.697 9233955.695 -1889148.220 10 0 60593 66600.00000 0 -23682767.417 9417168.804 1336813.820 10 0 60593 67500.00000 0 -23280399.664 9429481.604 4536850.923 10 0 60593 68400.00000 0 -22538863.409 9224095.572 7648918.887 10 0 60593 69300.00000 0 -21500649.596 8762377.703 10612714.540 10 0 60593 70200.00000 0 -20217127.652 8015727.715 13370837.353 10 0 60593 71100.00000 0 -18746350.302 6967028.431 15869892.405 10 0 60593 72000.00000 0 -17150600.990 5611618.424 18061514.092 10 0 60593 72900.00000 0 -15493786.464 3957745.889 19903291.720 10 0 60593 73800.00000 0 -13838783.024 2026484.273 21359580.212 10 0 60593 74700.00000 0 -12244846.511 -148887.648 22402181.321 10 0 60593 75600.00000 0 -10765193.081 -2524016.557 23010883.250 10 0 60593 76500.00000 0 -9444850.530 -5045070.744 23173849.056 10 0 60593 77400.00000 0 -8318868.705 -7650736.972 22887846.818 10 0 60593 78300.00000 0 -7410962.682 -10274537.095 22158317.246 10 0 60593 79200.00000 0 -6732644.644 -12847370.228 20999277.073 10 0 60593 80100.00000 0 -6282880.394 -15300176.713 19433059.396 10 0 60593 81000.00000 0 -6048284.821 -17566614.851 17489894.871 10 0 60593 81900.00000 0 -6003848.439 -19585640.320 15207340.539 10 0 60593 82800.00000 0 -6114165.019 -21303881.631 12629565.915 10 0 60593 83700.00000 0 -6335109.316 -22677712.860 9806508.744 10 0 60593 84600.00000 0 -6615894.792 -23674936.917 6792915.573 10 0 60593 85500.00000 0 -6901424.894 -24276008.323 3647284.866 10 0 60594 0.00000 0 -7134838.575 -24474743.432 430732.943 10 0 60594 900.00000 0 -7260142.136 -24278487.383 -2794197.000 10 0 60594 1800.00000 0 -7224814.839 -23707729.661 -5964754.945 10 0 60594 2700.00000 0 -6982277.142 -22795184.115 -9019214.425 10 0 60594 3600.00000 0 -6494115.087 -21584371.347 -11898083.979 10 0 60594 4500.00000 0 -5731964.944 -20127763.290 -14545276.600 10 0 60594 5400.00000 0 -4678976.447 -18484568.360 -16909212.944 10 0 60594 6300.00000 0 -3330790.837 -16718250.952 -18943835.750 10 0 60594 7200.00000 0 -1695990.673 -14893890.428 -20609514.786 10 0 60594 8100.00000 0 203999.054 -13075491.454 -21873824.122 10 0 60594 9000.00000 0 2335555.633 -11323359.387 -22712176.261 10 0 60594 9900.00000 0 4654022.966 -9691651.462 -23108300.731 10 0 60594 10800.00000 0 7105347.366 -8226206.681 -23054558.035 10 0 60594 11700.00000 0 9628116.697 -6962745.223 -22552083.206 10 0 60594 12600.00000 0 12155917.756 -5925512.261 -21610756.674 10 0 60594 13500.00000 0 14619913.447 -5126422.000 -20249003.557 10 0 60594 14400.00000 0 16951532.208 -4564736.475 -18493425.849 10 0 60594 15300.00000 0 19085157.422 -4227290.901 -16378275.226 10 0 60594 16200.00000 0 20960704.754 -4089254.300 -13944777.286 10 0 60594 17100.00000 0 22525980.170 -4115391.503 -11240320.875 10 0 60594 18000.00000 0 23738720.634 -4261771.570 -8317528.830 10 0 60594 18900.00000 0 24568233.053 -4477848.968 -5233228.700 10 0 60594 19800.00000 0 24996563.924 -4708828.264 -2047343.943 10 0 60594 20700.00000 0 25019151.951 -4898211.431 1178272.402 10 0 60594 21600.00000 0 24644937.653 -4990419.380 4381038.581 10 0 60594 22500.00000 0 23895926.751 -4933376.556 7498856.041 10 0 60594 23400.00000 0 22806226.874 -4680949.269 10471308.827 10 0 60594 24300.00000 0 21420599.053 -4195134.931 13240827.496 10 0 60594 25200.00000 0 19792585.388 -3447910.025 15753795.463 10 0 60594 26100.00000 0 17982291.643 -2422659.139 17961577.086 10 0 60594 27000.00000 0 16053917.470 -1115124.982 19821448.542 10 0 60594 27900.00000 0 14073136.920 466160.759 21297414.601 10 0 60594 28800.00000 0 12104437.791 2299984.348 22360896.574 10 0 60594 29700.00000 0 10208529.615 4353091.273 22991279.188 10 0 60594 30600.00000 0 8439926.991 6581336.425 23176306.658 10 0 60594 31500.00000 0 6844807.644 8931296.990 22912320.785 10 0 60594 32400.00000 0 5459233.176 11342282.809 22204336.642 10 0 60594 33300.00000 0 4307805.608 13748662.607 21065954.043 10 0 60594 34200.00000 0 3402815.040 16082411.321 19519105.833 10 0 60594 35100.00000 0 2743913.583 18275774.263 17593646.773 10 0 60594 36000.00000 0 2318329.119 20263938.659 15326789.632 10 0 60594 36900.00000 0 2101610.116 21987602.136 12762398.010 10 0 60594 37800.00000 0 2058870.583 23395331.379 9950148.140 10 0 60594 38700.00000 0 2146483.181 24445612.352 6944574.678 10 0 60594 39600.00000 0 2314149.434 25108505.616 3804018.128 10 0 60594 40500.00000 0 2507259.720 25366836.501 589493.773 10 0 60594 41400.00000 0 2669443.007 25216869.001 -2636496.004 10 0 60594 42300.00000 0 2745197.759 24668433.904 -5811182.496 10 0 60594 43200.00000 0 2682491.563 23744504.700 -8872760.131 10 0 60594 44100.00000 0 2435217.929 22480238.276 -11761599.650 10 0 60594 45000.00000 0 1965404.521 20921520.271 -14421420.208 10 0 60594 45900.00000 0 1245077.532 19123076.194 -16800396.397 10 0 60594 46800.00000 0 257701.436 17146227.931 -18852177.534 10 0 60594 47700.00000 0 -1000868.431 15056390.437 -20536798.466 10 0 60594 48600.00000 0 -2521962.268 12920414.387 -21821463.493 10 0 60594 49500.00000 0 -4284220.331 10803886.900 -22681187.861 10 0 60594 50400.00000 0 -6254261.356 8768504.061 -23099284.207 10 0 60594 51300.00000 0 -8387867.534 6869625.539 -23067684.726 10 0 60594 52200.00000 0 -10631636.804 5154113.599 -22587093.118 10 0 60594 53100.00000 0 -12925033.432 3658546.466 -21666963.892 10 0 60594 54000.00000 0 -15202751.127 2407879.873 -20325309.952 10 0 60594 54900.00000 0 -17397289.837 1414611.466 -18588342.799 10 0 60594 55800.00000 0 -19441638.392 678481.423 -16489952.936 10 0 60594 56700.00000 0 -21271950.871 186719.868 -14071041.101 10 0 60594 57600.00000 0 -22830104.890 -85171.385 -11378713.896 10 0 60594 58500.00000 0 -24066035.063 -172137.717 -8465359.964 10 0 60594 59400.00000 0 -24939744.493 -117847.129 -5387625.213 10 0 60594 60300.00000 0 -25422910.752 27403.337 -2205307.441 10 0 60594 61200.00000 0 -25500019.977 209060.396 1019807.657 10 0 60594 62100.00000 0 -25168982.585 370865.264 4225146.181 10 0 60594 63000.00000 0 -24441205.899 457473.874 7348557.912 10 0 60594 63900.00000 0 -23341121.745 417035.559 10329516.871 10 0 60594 64800.00000 0 -21905189.700 203621.236 13110287.465 10 0 60594 65700.00000 0 -20180418.448 -220601.185 15637034.162 10 0 60594 66600.00000 0 -18222467.445 -883535.654 17860853.855 10 0 60594 67500.00000 0 -16093408.196 -1801747.945 19738711.956 10 0 60594 68400.00000 0 -13859238.142 -2979536.028 21234265.140 10 0 60594 69300.00000 0 -11587250.017 -4408520.113 22318555.963 10 0 60594 70200.00000 0 -9343365.085 -6067770.226 22970566.964 10 0 60594 71100.00000 0 -7189539.887 -7924467.060 23177624.385 10 0 60594 72000.00000 0 -5181352.928 -9935069.954 22935644.210 10 0 60594 72900.00000 0 -3365870.232 -12046945.060 22249215.937 10 0 60594 73800.00000 0 -1779877.289 -14200387.782 21131522.163 10 0 60594 74700.00000 0 -448550.007 -16330957.193 19604094.834 10 0 60594 75600.00000 0 615380.663 -18372026.993 17696411.829 10 0 60594 76500.00000 0 1411935.962 -20257448.208 15445340.339 10 0 60594 77400.00000 0 1953655.624 -21924213.626 12894436.431 10 0 60594 78300.00000 0 2264832.944 -23315013.250 10093112.899 10 0 60594 79200.00000 0 2380250.509 -24380573.945 7095690.336 10 0 60594 80100.00000 0 2343469.549 -25081684.753 3960348.881 10 0 60594 81000.00000 0 2204745.005 -25390822.022 748000.468 10 0 60594 81900.00000 0 2018654.513 -25293304.841 -2478896.640 10 0 60594 82800.00000 0 1841542.129 -24787930.800 -5657557.624 10 0 60594 83700.00000 0 1728885.840 -23887063.959 -8726100.745 10 0 60594 84600.00000 0 1732701.611 -22616170.086 -11624761.940 10 0 60594 85500.00000 0 1899095.387 -21012817.796 -14297069.524 10 0 60595 0.00000 0 2266068.390 -19125187.241 -16690954.739 10 0 60595 900.00000 0 2861670.522 -17010147.750 -18759776.681 10 0 60595 1800.00000 0 3702581.156 -14730987.942 -20463237.547 10 0 60595 2700.00000 0 4793179.362 -12354890.523 -21768174.044 10 0 60595 3600.00000 0 6125143.723 -9950260.612 -22649205.917 10 0 60595 4500.00000 0 7677599.707 -7584018.938 -23089230.226 10 0 60595 5400.00000 0 9417809.146 -5318973.653 -23079751.708 10 0 60595 6300.00000 0 11302373.282 -3211380.592 -22621043.151 10 0 60595 7200.00000 0 13278899.119 -1308793.670 -21722133.134 10 0 60595 8100.00000 0 15288059.195 351705.600 -20400621.955 10 0 60595 9000.00000 0 17265958.395 1744826.604 -18682329.854 10 0 60595 9900.00000 0 19146708.457 2857882.612 -16600784.994 10 0 60595 10800.00000 0 20865102.175 3691066.091 -14196561.697 10 0 60595 11700.00000 0 22359275.223 4257176.968 -11516482.332 10 0 60595 12600.00000 0 23573244.093 4580817.468 -8612698.945 10 0 60595 13500.00000 0 24459213.983 4697089.568 -5541672.992 10 0 60595 14400.00000 0 24979560.306 4649851.963 -2363073.468 10 0 60595 15300.00000 0 25108401.284 4489611.763 861384.664 10 0 60595 16200.00000 0 24832696.417 4271141.299 4069138.869 10 0 60595 17100.00000 0 24152825.590 4050921.651 7197990.799 10 0 60595 18000.00000 0 23082625.385 3884521.435 10187307.861 10 0 60595 18900.00000 0 21648881.818 3824021.759 12979191.531 10 0 60595 19800.00000 0 19890301.303 3915595.912 15519590.259 10 0 60595 20700.00000 0 17856003.185 4197345.561 17759336.100 10 0 60595 21600.00000 0 15603596.742 4697484.246 19655085.958 10 0 60595 22500.00000 0 13196922.432 5432944.318 21170150.306 10 0 60595 23400.00000 0 10703550.701 6408465.781 22275194.459 10 0 60595 24300.00000 0 8192141.283 7616205.518 22948799.874 10 0 60595 25200.00000 0 5729771.366 9035883.961 23177875.495 10 0 60595 26100.00000 0 3379342.114 10635464.133 22957911.718 10 0 60595 27000.00000 0 1197169.713 12372336.161 22293072.225 10 0 60595 27900.00000 0 -769140.453 14194959.528 21196121.670 10 0 60595 28800.00000 0 -2482449.350 16044896.374 19688189.912 10 0 60595 29700.00000 0 -3917397.432 17859152.819 17798376.331 10 0 60595 30600.00000 0 -5061221.325 19572732.161 15563200.553 10 0 60595 31500.00000 0 -5914040.190 21121294.521 13025908.805 10 0 60595 32400.00000 0 -6488599.885 22443812.451 10235647.912 10 0 60595 33300.00000 0 -6809485.512 23485111.531 7246521.672 10 0 60595 34200.00000 0 -6911835.253 24198189.045 4116547.009 10 0 60595 35100.00000 0 -6839609.593 24546212.571 906529.580 10 0 60595 36000.00000 0 -6643488.992 24504113.181 -2321119.444 10 0 60595 36900.00000 0 -6378489.237 24059704.734 -5503602.065 10 0 60595 37800.00000 0 -6101396.019 23214280.517 -8578963.222 10 0 60595 38700.00000 0 -5868128.349 21982660.566 -11487306.728 10 0 60595 39600.00000 0 -5731143.776 20392686.367 -14171972.516 10 0 60595 40500.00000 0 -5736996.755 18484183.151 -16580651.084 10 0 60595 41400.00000 0 -5924155.104 16307432.797 -18666412.360 10 0 60595 42300.00000 0 -6321168.475 13921221.174 -20388627.996 10 0 60595 43200.00000 0 -6945267.641 11390541.903 -21713768.471 10 0 60595 44100.00000 0 -7801454.973 8784052.935 -22616059.136 10 0 60595 45000.00000 0 -8882125.380 6171392.767 -23077982.316 10 0 60595 45900.00000 0 -10167234.331 3620468.737 -23090615.847 10 0 60595 46800.00000 0 -11625006.278 1194830.727 -22653801.841 10 0 60595 47700.00000 0 -13213153.787 -1048760.238 -21776142.852 10 0 60595 48600.00000 0 -14880556.105 -3062467.634 -20474826.096 10 0 60595 49500.00000 0 -16569326.457 -4809131.134 -18775279.704 10 0 60595 50400.00000 0 -18217180.999 -6263562.583 -16710668.297 10 0 60595 51300.00000 0 -19760009.690 -7413333.821 -14321238.247 10 0 60595 52200.00000 0 -21134540.937 -8259025.436 -11653525.895 10 0 60595 53100.00000 0 -22280987.963 -8813928.243 -8759444.669 10 0 60595 54000.00000 0 -23145565.798 -9103212.277 -5695269.370 10 0 60595 54900.00000 0 -23682773.310 -9162600.491 -2520537.829 10 0 60595 55800.00000 0 -23857344.775 -9036604.955 703108.228 10 0 60595 56700.00000 0 -23645789.479 -8776401.605 3913120.283 10 0 60595 57600.00000 0 -23037455.299 -8437434.465 7047254.631 10 0 60595 58500.00000 0 -22035072.248 -8076851.313 10044774.945 10 0 60595 59400.00000 0 -20654753.762 -7750879.425 12847622.691 10 0 60595 60300.00000 0 -18925456.090 -7512252.142 15401533.206 10 0 60595 61200.00000 0 -16887918.606 -7407794.500 17657076.483 10 0 60595 62100.00000 0 -14593129.207 -7476269.174 19570603.489 10 0 60595 63000.00000 0 -12100378.299 -7746572.866 21105080.764 10 0 60595 63900.00000 0 -9474981.627 -8236358.558 22230798.271 10 0 60595 64800.00000 0 -6785765.487 -8951141.323 22925937.864 10 0 60595 65700.00000 0 -4102417.322 -9883925.374 23176992.238 10 0 60595 66600.00000 0 -1492810.141 -11015368.591 22979026.809 10 0 60595 67500.00000 0 979589.913 -12314478.674 22335779.658 10 0 60595 68400.00000 0 3258126.852 -13739813.180 21259597.328 10 0 60595 69300.00000 0 5295070.579 -15241134.888 19771207.068 10 0 60595 70200.00000 0 7053358.271 -16761454.999 17899328.894 10 0 60595 71100.00000 0 8507889.731 -18239380.318 15680133.650 10 0 60595 72000.00000 0 9646323.146 -19611667.524 13156556.170 10 0 60595 72900.00000 0 10469338.153 -20815878.471 10377475.397 10 0 60595 73800.00000 0 10990355.174 -21793025.592 7396776.103 10 0 60595 74700.00000 0 11234722.595 -22490096.164 4272309.460 10 0 60595 75600.00000 0 11238405.825 -22862348.668 1064772.078 10 0 60595 76500.00000 0 11046233.452 -22875283.423 -2163474.904 10 0 60595 77400.00000 0 10709774.706 -22506202.971 -5349623.349 10 0 60595 78300.00000 0 10284938.432 -21745294.756 -8431647.953 10 0 60595 79200.00000 0 9829395.918 -20596188.658 -11349523.463 10 0 60595 80100.00000 0 9399937.749 -19075964.262 -14046404.412 10 0 60595 81000.00000 0 9049877.855 -17214606.121 -16469743.199 10 0 60595 81900.00000 0 8826616.005 -15053928.851 -18572323.670 10 0 60595 82800.00000 0 8769463.272 -12646016.520 -20313189.075 10 0 60595 83700.00000 0 8907823.660 -10051241.449 -21658445.709 10 0 60595 84600.00000 0 9259809.783 -7335945.343 -22581926.183 10 0 60595 85500.00000 0 9831351.817 -4569879.926 -23065699.307 10 0 60596 0.00000 0 10615837.736 -1823514.421 -23100416.830 10 0 60596 900.00000 0 11594300.665 834679.091 -22685490.577 10 0 60596 1800.00000 0 12736144.334 3340845.585 -21829097.047 10 0 60596 2700.00000 0 14000377.241 5638168.309 -20548010.016 10 0 60596 3600.00000 0 15337302.241 7678987.395 -18867264.812 10 0 60596 4500.00000 0 16690590.380 9426530.012 -16819661.492 10 0 60596 5400.00000 0 17999651.216 10856181.119 -14445117.125 10 0 60596 6300.00000 0 19202199.488 11956243.494 -11789880.308 10 0 60596 7200.00000 0 20236909.803 12728157.311 -8905623.779 10 0 60596 8100.00000 0 21046047.429 13186172.295 -5848433.262 10 0 60596 9000.00000 0 21577964.450 13356488.472 -2677712.685 10 0 60596 9900.00000 0 21789356.373 13275903.757 544972.455 10 0 60596 10800.00000 0 21647184.507 12990027.209 3757090.803 10 0 60596 11700.00000 0 21130183.664 12551134.766 6896356.518 10 0 60596 12600.00000 0 20229892.270 12015758.959 9901932.728 10 0 60596 13500.00000 0 18951162.037 11442114.899 12715603.981 10 0 60596 14400.00000 0 17312126.108 10887471.241 15282895.415 10 0 60596 15300.00000 0 15343627.118 10405576.738 17554117.669 10 0 60596 16200.00000 0 13088128.873 10044250.257 19485318.225 10 0 60596 17100.00000 0 10598156.530 9843234.997 21039121.868 10 0 60596 18000.00000 0 7934329.419 9832406.428 22185445.076 10 0 60596 18900.00000 0 5163067.111 10030408.639 22902071.606 10 0 60596 19800.00000 0 2354062.516 10443776.034 23175079.012 10 0 60596 20700.00000 0 -422374.758 11066577.261 22999108.394 10 0 60596 21600.00000 0 -3097996.356 11880596.797 22377472.393 10 0 60596 22500.00000 0 -5609205.122 12856047.498 21322099.085 10 0 60596 23400.00000 0 -7899451.081 13952785.496 19853312.220 10 0 60596 24300.00000 0 -9921335.240 15121978.050 17999451.057 10 0 60596 25200.00000 0 -11638334.718 16308155.966 15796335.817 10 0 60596 26100.00000 0 -13026077.858 17451565.886 13286587.721 10 0 60596 27000.00000 0 -14073116.389 18490724.842 10518815.334 10 0 60596 27900.00000 0 -14781162.305 19365070.368 7546681.701 10 0 60596 28800.00000 0 -15164779.297 20017594.825 4427869.431 10 0 60596 29700.00000 0 -15250541.447 20397352.591 1222963.201 10 0 60596 30600.00000 0 -15075694.412 20461733.467 -2005728.786 10 0 60596 31500.00000 0 -14686375.533 20178404.994 -5195391.147 10 0 60596 32400.00000 0 -14135468.268 19526840.028 -8283931.163 10 0 60596 33300.00000 0 -13480182.192 18499363.224 -11211197.242 10 0 60596 34200.00000 0 -12779461.757 17101670.415 -13920161.068 10 0 60596 35100.00000 0 -12091334.492 15352797.294 -16358039.281 10 0 60596 36000.00000 0 -11470312.022 13284537.211 -18477331.715 10 0 60596 36900.00000 0 -10964955.035 10940331.507 -20236755.011 10 0 60596 37800.00000 0 -10615706.244 8373678.169 -21602052.771 10 0 60596 38700.00000 0 -10453083.821 5646125.100 -22546666.057 10 0 60596 39600.00000 0 -10496312.210 2824931.825 -23052251.064 10 0 60596 40500.00000 0 -10752448.437 -19502.615 -23109034.025 10 0 60596 41400.00000 0 -11216040.786 -2816338.196 -22715996.754 10 0 60596 42300.00000 0 -11869333.988 -5497006.313 -21880889.714 10 0 60596 43200.00000 0 -12683011.789 -7997823.208 -20620072.883 10 0 60596 44100.00000 0 -13617445.004 -10262395.985 -18958188.096 10 0 60596 45000.00000 0 -14624391.742 -12243721.697 -16927669.843 10 0 60596 45900.00000 0 -15649077.455 -13905893.115 -14568104.601 10 0 60596 46800.00000 0 -16632566.490 -15225341.489 -11925451.704 10 0 60596 47700.00000 0 -17514324.589 -16191566.121 -9051141.468 10 0 60596 48600.00000 0 -18234863.917 -16807322.280 -6001068.638 10 0 60596 49500.00000 0 -18738358.839 -17088261.709 -2834501.189 10 0 60596 50400.00000 0 -18975122.096 -17062042.938 387073.819 10 0 60596 51300.00000 0 -18903837.116 -16766950.805 3601144.578 10 0 60596 52200.00000 0 -18493452.644 -16250084.949 6745385.655 10 0 60596 53100.00000 0 -17724660.258 -15565194.894 9758862.346 10 0 60596 54000.00000 0 -16590892.919 -14770253.773 12583205.103 10 0 60596 54900.00000 0 -15098802.862 -13924873.275 15163731.750 10 0 60596 55800.00000 0 -13268198.808 -13087668.611 17450496.430 10 0 60596 56700.00000 0 -11131444.902 -12313683.913 19399245.877 10 0 60596 57600.00000 0 -8732345.917 -11651985.604 20972265.636 10 0 60596 58500.00000 0 -6124564.314 -11143523.941 22139100.925 10 0 60596 59400.00000 0 -3369633.819 -10819351.638 22877139.274 10 0 60596 60300.00000 0 -534650.465 -10699273.546 23172044.573 10 0 60596 61200.00000 0 2310264.717 -10790983.573 23018034.686 10 0 60596 62100.00000 0 5094628.010 -11089724.953 22417997.493 10 0 60596 63000.00000 0 7750271.771 -11578488.431 21383442.890 10 0 60596 63900.00000 0 10213930.144 -12228740.848 19934291.040 10 0 60596 64800.00000 0 12429625.850 -13001654.617 18098499.967 10 0 60596 65700.00000 0 14350759.941 -13849787.773 15911538.402 10 0 60596 66600.00000 0 15941818.159 -14719145.332 13415712.674 10 0 60596 67500.00000 0 17179623.082 -15551536.390 10659359.252 10 0 60596 68400.00000 0 18054079.694 -16287128.620 7695917.314 10 0 60596 69300.00000 0 18568382.852 -16867092.849 4582898.344 10 0 60596 70200.00000 0 18738677.591 -17236226.046 1380772.182 10 0 60596 71100.00000 0 18593186.162 -17345441.283 -1848209.079 10 0 60596 72000.00000 0 18170838.324 -17154018.297 -5041226.140 10 0 60596 72900.00000 0 17519462.664 -16631517.978 -8136122.256 10 0 60596 73800.00000 0 16693615.584 -15759278.007 -11072622.829 10 0 60596 74700.00000 0 15752140.249 -14531424.536 -13793519.919 10 0 60596 75600.00000 0 14755559.514 -12955355.281 -16245797.432 10 0 60596 76500.00000 0 13763413.985 -11051671.905 -18381673.975 10 0 60596 77400.00000 0 12831658.793 -8853563.096 -20159542.067 10 0 60596 78300.00000 0 12010230.015 -6405663.135 -21544784.757 10 0 60596 79200.00000 0 11340884.293 -3762433.047 -22510453.316 10 0 60596 80100.00000 0 10855403.365 -986131.712 -23037792.666 10 0 60596 81000.00000 0 10574239.446 1855538.456 -23116604.440 10 0 60596 81900.00000 0 10505658.443 4692012.999 -22745440.931 10 0 60596 82800.00000 0 10645416.648 7452566.412 -21931626.617 10 0 60596 83700.00000 0 10976983.861 10069020.114 -20691107.372 10 0 60596 84600.00000 0 11472302.569 12478344.861 -19048130.881 10 0 60596 85500.00000 0 12093050.216 14625049.583 -17034765.069 99